Flag for Israel Weather past 2 weeks in Ashdod, Israel

59 °F


Feels Like: 60 °F
Forecast: 70 / 77 °F
Wind: 3 mph from North

Location: Ben Gurion International Airport

Current Time: Nov 25, 2015 at 2:46:39 AM

Latest Report: Nov 25, 2015 at 1:50 AM

Visibility: 10 mi

Pressure: 30.12 "Hg

Humidity: 42%

Dew point: 36 °F

Location of AshdodLocation

Historic Weather in Ashdod — Graph


Ashdod temperature yesterday

Maximum temperature yesterday: 77 °F (at 12:20 PM)
Minimum temperature yesterday: 55 °F (at 6:20 AM)
Average temperature yesterday: 66 °F

Past Weeks' High & Low Weather Summary

High90 °F (Nov 15, 1:50 PM)94% (Nov 16, 11:20 AM)30.18 "Hg (Nov 16, 11:20 AM)
Low54 °F (Nov 14, 5:20 AM)20% (Nov 14, 10:20 AM)29.74 "Hg (Nov 16, 11:50 AM)
Average68 °F59%30.00 "Hg
* Reported Nov 10 1:20 AM — Nov 25 1:20 AM, Ashdod, Weather by CustomWeather, © 2015

Note: Actual official high and low records may vary slightly from our data, if they occured in-between our weather recording intervals... More about our weather records


Ashdod weather history for previous 24 hours

Time TempWeatherWind HumidityBarometerVisibility
1:20 AM
Wed, Nov 25
59 °FClear.10 mph45%30.09 "Hg10 mi
12:50 AM57 °FClear.7 mph48%30.09 "Hg10 mi
12:20 AM57 °FClear.2 mph51%30.12 "Hg10 mi
11:50 PM
Tue, Nov 24
61 °FClear.7 mph42%30.12 "Hg10 mi
11:20 PM59 °FClear.6 mph59%30.15 "Hg10 mi
10:50 PM59 °FClear.2 mph59%30.15 "Hg10 mi
10:20 PM57 °FClear.3 mph67%30.15 "Hg10 mi
9:50 PM59 °FClear.5 mph68%30.12 "Hg10 mi
9:20 PM63 °FClear.3 mph56%30.12 "Hg10 mi
8:50 PM63 °FClear.2 mph59%30.12 "Hg10 mi
8:20 PM63 °FClear.2 mph59%30.12 "Hg10 mi
7:50 PM63 °FClear.5 mph59%30.12 "Hg10 mi
7:20 PM66 °FClear.1 mph52%30.12 "Hg10 mi
6:50 PM66 °FClear.2 mph52%30.12 "Hg10 mi
6:20 PM68 °FClear.2 mph49%30.12 "Hg10 mi
5:50 PM70 °FClear.3 mph46%30.09 "Hg10 mi
5:20 PM72 °FClear.6 mph44%30.09 "Hg10 mi
4:50 PM75 °FClear.8 mph36%30.09 "Hg10 mi
4:20 PM75 °FSunny.10 mph36%30.09 "Hg10 mi
3:50 PM77 °FSunny.9 mph34%30.09 "Hg10 mi
3:20 PM77 °FSunny.9 mph32%30.09 "Hg10 mi
2:50 PM77 °FSunny.8 mph32%30.09 "Hg10 mi
2:20 PM77 °FSunny.6 mph32%30.09 "Hg10 mi
1:50 PM77 °FSunny.2 mph34%30.09 "Hg10 mi
1:20 PM75 °FSunny.5 mph36%30.09 "Hg10 mi
12:50 PM75 °FPassing clouds.6 mph36%30.09 "HgN/A
12:20 PM77 °FPassing clouds.5 mph32%30.12 "HgN/A
11:50 AM75 °FPassing clouds.8 mph34%30.12 "HgN/A
11:20 AM73 °FSunny.7 mph33%30.12 "Hg10 mi
10:50 AM73 °FSunny.3 mph33%30.12 "Hg10 mi
10:20 AM70 °FSunny.5 mph35%30.15 "Hg10 mi
9:50 AM68 °FSunny.6 mph38%30.15 "Hg10 mi
8:50 AM64 °FSunny.3 mph49%30.18 "Hg10 mi
8:20 AM61 °FSunny.2 mph55%30.18 "Hg10 mi
7:50 AM59 °FSunny.3 mph59%30.15 "Hg10 mi
7:20 AM57 °FSunny.3 mph59%30.15 "Hg10 mi
6:50 AM55 °FSunny.5 mph67%30.15 "Hg10 mi
6:20 AM55 °FSunny.2 mph67%30.15 "Hg10 mi
5:50 AM57 °FClear.2 mph63%30.15 "Hg10 mi
4:50 AM59 °FClear.6 mph55%30.12 "Hg10 mi
4:20 AM57 °FClear.2 mph63%30.12 "Hg10 mi
3:50 AM57 °FClear.1 mph63%30.12 "Hg10 mi
3:20 AM57 °FClear.2 mph63%30.12 "Hg10 mi
2:50 AM57 °FClear.8 mph63%30.12 "Hg10 mi
2:20 AM57 °FClear.10 mph63%30.12 "Hg10 mi
Weather by CustomWeather, © 2015

See weather overviewHow to use our weather pages